This is the latest recevied weather packets stored in our database for station/object JS2QVS-13. If no packets are shown the sender has not sent any weather packets the latest 10 day(s).
| Time | Temp. | Humidity | Pressure | Rain* | Wind** | Luminosity | Snow |
|---|---|---|---|---|---|---|---|
| 1777784262 | 21.67° C | 72% | 1006.1 hPa | 0 mm | - | - | - |
| 1777783662 | 21.11° C | 74% | 1006.3 hPa | 0 mm | - | - | - |
| 1777783062 | 21.11° C | 75% | 1006.5 hPa | 0 mm | - | - | - |
| 1777782462 | 21.11° C | 76% | 1006.7 hPa | 0 mm | - | - | - |
| 1777781862 | 21.11° C | 76% | 1006.8 hPa | 0 mm | - | - | - |
| 1777781262 | 21.67° C | 75% | 1007.1 hPa | 0 mm | - | - | - |
| 1777780661 | 21.67° C | 74% | 1007 hPa | 0 mm | - | - | - |
| 1777780061 | 21.67° C | 73% | 1006.9 hPa | 0 mm | - | - | - |
| 1777779461 | 22.22° C | 72% | 1007.1 hPa | 0 mm | - | - | - |
| 1777778863 | 22.22° C | 72% | 1007.2 hPa | 0 mm | - | - | - |
| 1777778263 | 22.22° C | 71% | 1007.4 hPa | 0 mm | - | - | - |
| 1777777663 | 22.78° C | 69% | 1007.6 hPa | 0 mm | - | - | - |
| 1777777062 | 22.78° C | 66% | 1007.7 hPa | 0 mm | - | - | - |
| 1777776462 | 22.22° C | 65% | 1008 hPa | 0 mm | - | - | - |
| 1777775862 | 22.22° C | 64% | 1008 hPa | 0 mm | - | - | - |
| 1777775262 | 22.22° C | 63% | 1008 hPa | 0 mm | - | - | - |
| 1777774662 | 22.22° C | 65% | 1008.1 hPa | 0 mm | - | - | - |
| 1777774062 | 22.22° C | 63% | 1008.3 hPa | 0 mm | - | - | - |
| 1777773462 | 22.78° C | 60% | 1008.1 hPa | 0 mm | - | - | - |
| 1777772861 | 22.22° C | 57% | 1008.1 hPa | 0 mm | - | - | - |
| 1777772261 | 22.22° C | 55% | 1008.2 hPa | 0 mm | - | - | - |
| 1777771663 | 21.67° C | 55% | 1008.4 hPa | 0 mm | - | - | - |
| 1777771063 | 22.22° C | 54% | 1008.4 hPa | 0 mm | - | - | - |
| 1777770463 | 22.22° C | 52% | 1008.3 hPa | 0 mm | - | - | - |
| 1777769862 | 22.22° C | 50% | 1008.5 hPa | 0 mm | - | - | - |
* Rain latest hour (hover to see other rain measurements)
** Current wind speed in m/s (hover to see current wind gust speed)